Time,TemperatureF,DewpointF,PressureIn,WindDirection,WindDirectionDegrees,WindSpeedMPH,WindSpeedGustMPH,Humidity,HourlyPrecipIn,Conditions,Clouds,dailyrainin,SoftwareType,DateUTC
2013-07-14 00:00:00,76.4,67.5,29.74,NNE,30,2.0,5.0,74,0.07,,---,0.00,VWS V14.01,2013-07-14 07:00:00,
2013-07-14 00:02:00,76.4,67.5,29.74,NE,44,1.0,5.0,74,0.07,,---,0.07,VWS V14.01,2013-07-14 07:02:00,
2013-07-14 00:08:00,76.4,67.9,29.73,NE,37,0.0,2.0,75,0.00,,---,0.00,VWS V14.01,2013-07-14 07:08:00,
2013-07-14 00:13:00,76.4,67.5,29.73,NNE,16,2.0,4.0,74,0.00,,---,0.00,VWS V14.01,2013-07-14 07:13:00,
2013-07-14 00:18:00,76.9,66.8,29.73,NE,42,0.0,4.0,71,0.00,,---,0.00,VWS V14.01,2013-07-14 07:18:00,
2013-07-14 00:23:00,77.3,66.8,29.73,NNE,14,0.0,4.0,70,0.00,,---,0.00,VWS V14.01,2013-07-14 07:23:00,
2013-07-14 00:28:00,77.3,67.6,29.73,North,6,0.0,4.0,72,0.00,,---,0.00,VWS V14.01,2013-07-14 07:28:00,
2013-07-14 00:30:00,77.2,67.5,29.73,NNE,13,0.0,4.0,72,0.00,,---,0.00,VWS V14.01,2013-07-14 07:30:00,
2013-07-14 00:33:00,77.2,67.5,29.73,NNE,12,0.0,0.0,72,0.00,,---,0.00,VWS V14.01,2013-07-14 07:33:00,
2013-07-14 00:38:00,77.3,68.0,29.73,NNE,22,4.0,4.0,73,0.00,,---,0.00,VWS V14.01,2013-07-14 07:38:00,
2013-07-14 00:43:00,77.4,68.5,29.73,NNE,16,1.0,4.0,74,0.00,,---,0.00,VWS V14.01,2013-07-14 07:43:00,
2013-07-14 00:48:00,77.5,67.8,29.73,NE,39,3.0,4.0,72,0.00,,---,0.00,VWS V14.01,2013-07-14 07:48:00,
2013-07-14 00:54:00,78.0,67.4,29.73,NNE,29,1.0,4.0,70,0.00,,---,0.00,VWS V14.01,2013-07-14 07:54:00,
2013-07-14 00:59:00,78.3,67.3,29.73,NNE,23,0.0,4.0,69,0.00,,---,0.00,VWS V14.01,2013-07-14 07:59:00,
2013-07-14 01:00:00,78.5,66.2,29.73,NE,35,1.0,4.0,66,0.00,,---,0.00,VWS V14.01,2013-07-14 08:00:00,
2013-07-14 01:04:00,78.6,66.3,29.73,NNE,22,2.0,3.0,66,0.00,,---,0.00,VWS V14.01,2013-07-14 08:04:00,
2013-07-14 01:09:00,79.0,65.8,29.73,NNE,24,0.0,3.0,64,0.00,,---,0.00,VWS V14.01,2013-07-14 08:09:00,
2013-07-14 01:14:00,79.2,66.0,29.73,NNE,26,0.0,3.0,64,0.00,,---,0.00,VWS V14.01,2013-07-14 08:14:00,
2013-07-14 01:19:00,79.1,65.9,29.73,NNE,26,0.0,3.0,64,0.00,,---,0.00,VWS V14.01,2013-07-14 08:19:00,
2013-07-14 01:24:00,78.8,66.1,29.72,NNE,26,0.0,3.0,65,0.00,,---,0.00,VWS V14.01,2013-07-14 08:24:00,
2013-07-14 01:29:00,78.4,67.0,29.73,NNE,26,0.0,3.0,68,0.00,,---,0.00,VWS V14.01,2013-07-14 08:29:00,
2013-07-14 01:30:00,78.2,67.6,29.73,NNE,24,0.0,3.0,70,0.00,,---,0.00,VWS V14.01,2013-07-14 08:30:00,
2013-07-14 01:34:00,78.1,67.5,29.73,NNE,25,0.0,0.0,70,0.00,,---,0.00,VWS V14.01,2013-07-14 08:34:00,
2013-07-14 01:40:00,77.8,67.7,29.73,NNE,24,0.0,0.0,71,0.00,,---,0.00,VWS V14.01,2013-07-14 08:40:00,
2013-07-14 01:45:00,77.7,68.8,29.73,NNE,25,0.0,0.0,74,0.00,,---,0.00,VWS V14.01,2013-07-14 08:45:00,
2013-07-14 01:50:00,77.3,67.6,29.73,NNE,24,0.0,0.0,72,0.00,,---,0.00,VWS V14.01,2013-07-14 08:50:00,
2013-07-14 01:55:00,77.0,67.7,29.73,NNE,24,0.0,0.0,73,0.00,,---,0.00,VWS V14.01,2013-07-14 08:55:00,
2013-07-14 02:00:00,77.2,67.9,29.73,NNE,24,0.0,0.0,73,0.00,,---,0.00,VWS V14.01,2013-07-14 09:00:00,
2013-07-14 02:05:00,77.5,67.4,29.73,NNE,25,0.0,0.0,71,0.00,,---,0.00,VWS V14.01,2013-07-14 09:05:00,
2013-07-14 02:10:00,77.8,68.9,29.73,North,355,0.0,0.0,74,0.00,,---,0.00,VWS V14.01,2013-07-14 09:10:00,
2013-07-14 02:11:00,77.7,69.9,29.73,WSW,249,0.0,0.0,77,0.00,,---,0.00,VWS V14.01,2013-07-14 09:11:00,
2013-07-14 02:16:00,77.6,66.6,29.73,WSW,251,0.0,0.0,69,0.00,,---,0.00,VWS V14.01,2013-07-14 09:16:00,
2013-07-14 02:21:00,78.2,66.4,29.73,WSW,252,0.0,0.0,67,0.00,,---,0.00,VWS V14.01,2013-07-14 09:21:00,
2013-07-14 02:27:00,78.5,65.8,29.73,WSW,251,0.0,0.0,65,0.00,,---,0.00,VWS V14.01,2013-07-14 09:27:00,
2013-07-14 02:30:00,78.4,66.6,29.73,West,264,0.0,1.0,67,0.00,,---,0.00,VWS V14.01,2013-07-14 09:30:00,
2013-07-14 02:32:00,78.4,66.1,29.73,West,263,0.0,1.0,66,0.00,,---,0.00,VWS V14.01,2013-07-14 09:32:00,
2013-07-14 02:37:00,78.2,66.4,29.73,West,267,0.0,0.0,67,0.00,,---,0.00,VWS V14.01,2013-07-14 09:37:00,
2013-07-14 02:42:00,77.8,66.8,29.73,WNW,302,0.0,0.0,69,0.00,,---,0.00,VWS V14.01,2013-07-14 09:42:00,
2013-07-14 02:47:00,77.6,66.6,29.73,WNW,302,0.0,0.0,69,0.00,,---,0.00,VWS V14.01,2013-07-14 09:47:00,
2013-07-14 02:52:00,77.4,66.4,29.73,NW,313,0.0,0.0,69,0.00,,---,0.00,VWS V14.01,2013-07-14 09:52:00,
2013-07-14 02:57:00,77.4,66.9,29.73,West,278,0.0,0.0,70,0.00,,---,0.00,VWS V14.01,2013-07-14 09:57:00,
2013-07-14 03:00:00,77.5,66.9,29.73,West,271,2.0,4.0,70,0.00,,---,0.00,VWS V14.01,2013-07-14 10:00:00,
2013-07-14 03:02:00,77.4,66.9,29.73,West,281,3.0,4.0,70,0.00,,---,0.00,VWS V14.01,2013-07-14 10:02:00,
2013-07-14 03:07:00,77.7,66.3,29.73,WNW,284,1.0,4.0,68,0.00,,---,0.00,VWS V14.01,2013-07-14 10:07:00,
2013-07-14 03:12:00,78.0,66.2,29.73,West,270,2.0,4.0,67,0.00,,---,0.00,VWS V14.01,2013-07-14 10:12:00,
2013-07-14 03:13:00,78.0,66.2,29.73,West,260,2.0,4.0,67,0.00,,---,0.00,VWS V14.01,2013-07-14 10:13:00,
2013-07-14 03:18:00,78.0,65.7,29.73,West,263,1.0,5.0,66,0.00,,---,0.00,VWS V14.01,2013-07-14 10:18:00,
2013-07-14 03:24:00,78.2,65.0,29.73,SW,229,0.0,5.0,64,0.00,,---,0.00,VWS V14.01,2013-07-14 10:24:00,
2013-07-14 03:29:00,78.3,65.1,29.73,WSW,253,0.0,5.0,64,0.00,,---,0.00,VWS V14.01,2013-07-14 10:29:00,
2013-07-14 03:30:00,78.3,65.6,29.73,WSW,253,0.0,5.0,65,0.00,,---,0.00,VWS V14.01,2013-07-14 10:30:00,
2013-07-14 03:34:00,78.2,65.5,29.73,WSW,253,0.0,0.0,65,0.00,,---,0.00,VWS V14.01,2013-07-14 10:34:00,
2013-07-14 03:39:00,77.8,65.5,29.73,West,264,0.0,0.0,66,0.00,,---,0.00,VWS V14.01,2013-07-14 10:39:00,
2013-07-14 03:44:00,77.6,65.3,29.73,West,281,0.0,2.0,66,0.00,,---,0.00,VWS V14.01,2013-07-14 10:44:00,
2013-07-14 03:49:00,77.6,64.9,29.73,West,281,0.0,2.0,65,0.00,,---,0.00,VWS V14.01,2013-07-14 10:49:00,
2013-07-14 03:54:00,77.5,65.3,29.73,West,276,0.0,2.0,66,0.00,,---,0.00,VWS V14.01,2013-07-14 10:54:00,
2013-07-14 03:59:00,77.4,64.7,29.73,West,270,0.0,2.0,65,0.00,,---,0.00,VWS V14.01,2013-07-14 10:59:00,
2013-07-14 04:00:00,77.4,64.7,29.73,West,270,0.0,2.0,65,0.00,,---,0.00,VWS V14.01,2013-07-14 11:00:00,
2013-07-14 04:05:00,77.4,64.3,29.73,West,270,0.0,0.0,64,0.00,,---,0.00,VWS V14.01,2013-07-14 11:05:00,
2013-07-14 04:10:00,77.7,65.4,29.73,NNE,16,0.0,0.0,66,0.00,,---,0.00,VWS V14.01,2013-07-14 11:10:00,
2013-07-14 04:15:00,77.5,65.7,29.74,ENE,69,0.0,0.0,67,0.00,,---,0.00,VWS V14.01,2013-07-14 11:15:00,
2013-07-14 04:20:00,77.4,66.9,29.74,ENE,70,0.0,0.0,70,0.00,,---,0.00,VWS V14.01,2013-07-14 11:20:00,
2013-07-14 04:25:00,77.1,67.0,29.74,ENE,71,0.0,0.0,71,0.00,,---,0.00,VWS V14.01,2013-07-14 11:25:00,
2013-07-14 04:30:00,76.9,66.8,29.75,ENE,58,0.0,0.0,71,0.00,,---,0.00,VWS V14.01,2013-07-14 11:30:00,
2013-07-14 04:35:00,76.9,66.4,29.75,NE,40,0.0,0.0,70,0.00,,---,0.00,VWS V14.01,2013-07-14 11:35:00,
2013-07-14 04:40:00,77.0,66.5,29.75,NE,41,0.0,0.0,70,0.00,,---,0.00,VWS V14.01,2013-07-14 11:40:00,
2013-07-14 04:45:00,77.0,66.1,29.75,NE,36,0.0,0.0,69,0.00,,---,0.00,VWS V14.01,2013-07-14 11:45:00,
2013-07-14 04:50:00,76.9,66.0,29.75,North,5,0.0,3.0,69,0.00,,---,0.00,VWS V14.01,2013-07-14 11:50:00,
2013-07-14 04:56:00,76.9,65.5,29.75,NNE,22,0.0,3.0,68,0.00,,---,0.00,VWS V14.01,2013-07-14 11:56:00,
2013-07-14 05:00:00,77.1,65.3,29.75,NNE,20,0.0,3.0,67,0.00,,---,0.00,VWS V14.01,2013-07-14 12:00:00,
2013-07-14 05:01:00,77.1,65.3,29.75,NNE,20,0.0,3.0,67,0.00,,---,0.00,VWS V14.01,2013-07-14 12:01:00,
2013-07-14 05:06:00,77.1,65.7,29.75,NNE,20,0.0,0.0,68,0.00,,---,0.00,VWS V14.01,2013-07-14 12:06:00,
2013-07-14 05:11:00,77.1,65.3,29.76,NNE,29,0.0,0.0,67,0.00,,---,0.00,VWS V14.01,2013-07-14 12:11:00,
2013-07-14 05:16:00,77.2,65.8,29.76,NNE,27,0.0,0.0,68,0.00,,---,0.00,VWS V14.01,2013-07-14 12:16:00,
2013-07-14 05:21:00,77.1,65.7,29.76,NNE,27,0.0,0.0,68,0.00,,---,0.00,VWS V14.01,2013-07-14 12:21:00,
2013-07-14 05:26:00,76.8,65.9,29.76,NNE,27,0.0,0.0,69,0.00,,---,0.00,VWS V14.01,2013-07-14 12:26:00,
2013-07-14 05:30:00,76.6,66.1,29.76,NNE,27,0.0,0.0,70,0.00,,---,0.00,VWS V14.01,2013-07-14 12:30:00,
2013-07-14 05:31:00,76.6,66.1,29.76,NNE,27,0.0,0.0,70,0.00,,---,0.00,VWS V14.01,2013-07-14 12:31:00,
2013-07-14 05:36:00,76.6,66.1,29.76,NNE,27,0.0,0.0,70,0.00,,---,0.00,VWS V14.01,2013-07-14 12:36:00,
2013-07-14 05:41:00,76.4,65.9,29.76,NNE,27,0.0,0.0,70,0.00,,---,0.00,VWS V14.01,2013-07-14 12:41:00,
2013-07-14 05:47:00,76.2,65.7,29.76,NNE,27,0.0,0.0,70,0.00,,---,0.00,VWS V14.01,2013-07-14 12:47:00,
2013-07-14 05:52:00,76.2,66.1,29.76,NNE,27,0.0,0.0,71,0.00,,---,0.00,VWS V14.01,2013-07-14 12:52:00,
2013-07-14 05:57:00,76.1,66.0,29.76,NNE,27,0.0,0.0,71,0.00,,---,0.00,VWS V14.01,2013-07-14 12:57:00,
2013-07-14 06:00:00,76.2,65.7,29.76,NNE,27,0.0,0.0,70,0.00,,---,0.00,VWS V14.01,2013-07-14 13:00:00,
2013-07-14 06:02:00,76.1,65.6,29.76,NNE,27,0.0,0.0,70,0.00,,---,0.00,VWS V14.01,2013-07-14 13:02:00,
2013-07-14 06:07:00,76.4,65.9,29.76,NNE,27,0.0,0.0,70,0.00,,---,0.00,VWS V14.01,2013-07-14 13:07:00,
2013-07-14 06:12:00,76.7,66.2,29.76,NNE,32,0.0,0.0,70,0.00,,---,0.00,VWS V14.01,2013-07-14 13:12:00,
2013-07-14 06:17:00,77.0,66.9,29.76,NE,44,0.0,1.0,71,0.00,,---,0.00,VWS V14.01,2013-07-14 13:17:00,
2013-07-14 06:22:00,76.9,67.2,29.76,NE,40,0.0,1.0,72,0.00,,---,0.00,VWS V14.01,2013-07-14 13:22:00,
2013-07-14 06:27:00,76.6,67.7,29.77,NNE,30,0.0,2.0,74,0.00,,---,0.00,VWS V14.01,2013-07-14 13:27:00,
2013-07-14 06:30:00,77.0,67.7,29.77,NNE,19,0.0,2.0,73,0.00,,---,0.00,VWS V14.01,2013-07-14 13:30:00,
2013-07-14 06:32:00,76.9,67.6,29.77,NNE,18,0.0,2.0,73,0.00,,---,0.00,VWS V14.01,2013-07-14 13:32:00,
2013-07-14 06:37:00,77.6,67.9,29.77,NNE,19,0.0,0.0,72,0.00,,---,0.00,VWS V14.01,2013-07-14 13:37:00,
2013-07-14 06:42:00,77.8,67.7,29.77,NE,50,0.0,0.0,71,0.00,,---,0.00,VWS V14.01,2013-07-14 13:42:00,
2013-07-14 06:47:00,78.0,67.8,29.77,ENE,57,0.0,0.0,71,0.00,,---,0.00,VWS V14.01,2013-07-14 13:47:00,
2013-07-14 06:53:00,78.4,67.8,29.76,NE,44,0.0,0.0,70,0.00,,---,0.00,VWS V14.01,2013-07-14 13:53:00,
2013-07-14 06:58:00,79.1,68.1,29.77,NE,36,0.0,2.0,69,0.00,,---,0.00,VWS V14.01,2013-07-14 13:58:00,
2013-07-14 07:00:00,79.8,67.9,29.76,NE,37,1.0,2.0,67,0.00,,---,0.00,VWS V14.01,2013-07-14 14:00:00,
2013-07-14 07:03:00,79.8,68.3,29.77,NE,35,1.0,2.0,68,0.00,,---,0.00,VWS V14.01,2013-07-14 14:03:00,
2013-07-14 07:08:00,80.4,68.4,29.77,NE,39,0.0,2.0,67,0.00,,---,0.00,VWS V14.01,2013-07-14 14:08:00,
2013-07-14 07:13:00,81.6,69.2,29.76,NE,39,0.0,2.0,66,0.00,,---,0.00,VWS V14.01,2013-07-14 14:13:00,
2013-07-14 07:18:00,83.2,68.8,29.76,NE,39,0.0,2.0,62,0.00,,---,0.00,VWS V14.01,2013-07-14 14:18:00,
2013-07-14 07:23:00,83.9,68.1,29.76,NE,39,0.0,2.0,59,0.00,,---,0.00,VWS V14.01,2013-07-14 14:23:00,
2013-07-14 07:28:00,84.6,67.7,29.76,NE,39,0.0,2.0,57,0.00,,---,0.00,VWS V14.01,2013-07-14 14:28:00,
2013-07-14 07:30:00,84.8,68.9,29.76,NE,40,0.0,2.0,59,0.00,,---,0.00,VWS V14.01,2013-07-14 14:30:00,
2013-07-14 07:33:00,84.8,68.9,29.76,NE,40,0.0,0.0,59,0.00,,---,0.00,VWS V14.01,2013-07-14 14:33:00,
2013-07-14 07:38:00,84.7,67.8,29.76,SSE,167,0.0,0.0,57,0.00,,---,0.00,VWS V14.01,2013-07-14 14:38:00,
2013-07-14 07:44:00,84.2,67.8,29.77,SSE,167,0.0,0.0,58,0.00,,---,0.00,VWS V14.01,2013-07-14 14:44:00,
2013-07-14 07:49:00,84.2,67.3,29.77,South,169,0.0,2.0,57,0.00,,---,0.00,VWS V14.01,2013-07-14 14:49:00,
2013-07-14 07:54:00,84.2,67.3,29.77,SW,226,0.0,2.0,57,0.00,,---,0.00,VWS V14.01,2013-07-14 14:54:00,
2013-07-14 07:59:00,84.0,66.6,29.77,South,188,0.0,2.0,56,0.00,,---,0.00,VWS V14.01,2013-07-14 14:59:00,
2013-07-14 08:00:00,84.5,67.1,29.77,SSW,206,0.0,2.0,56,0.00,,---,0.00,VWS V14.01,2013-07-14 15:00:00,
2013-07-14 08:04:00,84.7,66.8,29.77,WSW,238,2.0,2.0,55,0.00,,---,0.00,VWS V14.01,2013-07-14 15:04:00,
2013-07-14 08:09:00,85.0,66.5,29.77,SW,231,1.0,2.0,54,0.00,,---,0.00,VWS V14.01,2013-07-14 15:09:00,
2013-07-14 08:14:00,85.1,66.1,29.77,SW,226,0.0,2.0,53,0.00,,---,0.00,VWS V14.01,2013-07-14 15:14:00,
2013-07-14 08:19:00,86.3,65.5,29.78,SSE,162,0.0,2.0,50,0.00,,---,0.00,VWS V14.01,2013-07-14 15:19:00,
2013-07-14 08:24:00,87.0,63.7,29.78,SE,145,1.0,2.0,46,0.00,,---,0.00,VWS V14.01,2013-07-14 15:24:00,
2013-07-14 08:29:00,87.0,65.0,29.78,SE,128,0.0,3.0,48,0.00,,---,0.00,VWS V14.01,2013-07-14 15:29:00,
2013-07-14 08:30:00,87.1,65.6,29.77,SSW,212,3.0,3.0,49,0.00,,---,0.00,VWS V14.01,2013-07-14 15:30:00,
2013-07-14 08:34:00,87.0,64.3,29.77,SW,236,2.0,3.0,47,0.00,,---,0.00,VWS V14.01,2013-07-14 15:34:00,
2013-07-14 08:40:00,87.1,63.8,29.77,SSE,167,2.0,3.0,46,0.00,,---,0.00,VWS V14.01,2013-07-14 15:40:00,
2013-07-14 08:45:00,87.1,63.8,29.77,South,187,1.0,5.0,46,0.00,,---,0.00,VWS V14.01,2013-07-14 15:45:00,
2013-07-14 08:50:00,86.9,62.4,29.77,SW,236,1.0,5.0,44,0.00,,---,0.00,VWS V14.01,2013-07-14 15:50:00,
2013-07-14 08:55:00,86.5,61.4,29.77,South,173,2.0,5.0,43,0.00,,---,0.00,VWS V14.01,2013-07-14 15:55:00,
2013-07-14 09:00:00,87.1,61.9,29.76,SW,229,3.0,5.0,43,0.00,,---,0.00,VWS V14.01,2013-07-14 16:00:00,
2013-07-14 09:05:00,87.5,61.6,29.76,South,174,2.0,2.0,42,0.00,,---,0.00,VWS V14.01,2013-07-14 16:05:00,
2013-07-14 09:11:00,88.1,62.1,29.76,SW,214,2.0,4.0,42,0.00,,---,0.00,VWS V14.01,2013-07-14 16:11:00,
2013-07-14 09:16:00,88.7,61.3,29.76,SSE,167,4.0,5.0,40,0.00,,---,0.00,VWS V14.01,2013-07-14 16:16:00,
2013-07-14 09:21:00,89.2,62.4,29.76,SSE,152,1.0,5.0,41,0.00,,---,0.00,VWS V14.01,2013-07-14 16:21:00,
2013-07-14 09:26:00,89.8,62.3,29.76,SW,233,0.0,5.0,40,0.00,,---,0.00,VWS V14.01,2013-07-14 16:26:00,
2013-07-14 09:30:00,89.6,61.4,29.76,SSE,158,1.0,5.0,39,0.00,,---,0.00,VWS V14.01,2013-07-14 16:30:00,
2013-07-14 09:31:00,89.6,62.1,29.76,SW,215,3.0,5.0,40,0.00,,---,0.00,VWS V14.01,2013-07-14 16:31:00,
2013-07-14 09:36:00,90.1,62.5,29.76,SSW,212,4.0,6.0,40,0.00,,---,0.00,VWS V14.01,2013-07-14 16:36:00,
2013-07-14 09:41:00,90.4,62.1,29.76,South,181,1.0,6.0,39,0.00,,---,0.00,VWS V14.01,2013-07-14 16:41:00,
2013-07-14 09:46:00,91.0,61.9,29.76,SSE,163,2.0,6.0,38,0.00,,---,0.00,VWS V14.01,2013-07-14 16:46:00,
2013-07-14 09:51:00,90.8,61.7,29.76,WSW,255,1.0,6.0,38,0.00,,---,0.00,VWS V14.01,2013-07-14 16:51:00,
2013-07-14 09:56:00,91.4,61.5,29.76,South,186,2.0,6.0,37,0.00,,---,0.00,VWS V14.01,2013-07-14 16:56:00,
2013-07-14 10:00:00,92.6,62.5,29.75,WSW,253,2.0,6.0,37,0.00,,---,0.00,VWS V14.01,2013-07-14 17:00:00,
2013-07-14 10:01:00,92.3,63.0,29.75,SSE,157,1.0,6.0,38,0.00,,---,0.00,VWS V14.01,2013-07-14 17:01:00,
2013-07-14 10:06:00,92.3,61.5,29.75,West,263,2.0,4.0,36,0.00,,---,0.00,VWS V14.01,2013-07-14 17:06:00,
2013-07-14 10:11:00,92.6,61.8,29.75,SW,222,2.0,4.0,36,0.00,,---,0.00,VWS V14.01,2013-07-14 17:11:00,
2013-07-14 10:17:00,92.6,61.8,29.75,West,260,2.0,5.0,36,0.00,,---,0.00,VWS V14.01,2013-07-14 17:17:00,
2013-07-14 10:22:00,92.9,62.0,29.75,SW,218,3.0,5.0,36,0.00,,---,0.00,VWS V14.01,2013-07-14 17:22:00,
2013-07-14 10:27:00,93.6,62.7,29.75,SE,124,0.0,5.0,36,0.00,,---,0.00,VWS V14.01,2013-07-14 17:27:00,
2013-07-14 10:30:00,93.8,62.0,29.75,SW,222,3.0,5.0,35,0.00,,---,0.00,VWS V14.01,2013-07-14 17:30:00,
2013-07-14 10:32:00,93.7,60.3,29.75,WSW,243,0.0,5.0,33,0.00,,---,0.00,VWS V14.01,2013-07-14 17:32:00,
2013-07-14 10:37:00,93.6,61.0,29.75,SW,228,0.0,5.0,34,0.00,,---,0.00,VWS V14.01,2013-07-14 17:37:00,
2013-07-14 10:42:00,94.2,61.6,29.75,SW,217,1.0,5.0,34,0.00,,---,0.00,VWS V14.01,2013-07-14 17:42:00,
2013-07-14 10:47:00,94.0,60.5,29.75,SW,231,2.0,8.0,33,0.00,,---,0.00,VWS V14.01,2013-07-14 17:47:00,
2013-07-14 10:52:00,94.1,61.5,29.75,SE,133,2.0,8.0,34,0.00,,---,0.00,VWS V14.01,2013-07-14 17:52:00,
2013-07-14 10:57:00,94.9,61.3,29.74,ENE,75,1.0,8.0,33,0.00,,---,0.00,VWS V14.01,2013-07-14 17:57:00,
2013-07-14 11:00:00,95.7,62.0,29.74,WSW,240,3.0,8.0,33,0.00,,---,0.00,VWS V14.01,2013-07-14 18:00:00,
2013-07-14 11:03:00,95.7,62.9,29.74,SW,235,3.0,8.0,34,0.00,,---,0.00,VWS V14.01,2013-07-14 18:03:00,
2013-07-14 11:08:00,96.1,61.5,29.74,SW,225,6.0,6.0,32,0.00,,---,0.00,VWS V14.01,2013-07-14 18:08:00,
2013-07-14 11:13:00,95.9,61.3,29.74,SSW,200,2.0,6.0,32,0.00,,---,0.00,VWS V14.01,2013-07-14 18:13:00,
2013-07-14 11:18:00,95.9,62.2,29.74,NNE,27,3.0,6.0,33,0.00,,---,0.00,VWS V14.01,2013-07-14 18:18:00,
2013-07-14 11:23:00,96.3,61.7,29.74,North,5,2.0,6.0,32,0.00,,---,0.00,VWS V14.01,2013-07-14 18:23:00,
2013-07-14 11:28:00,96.6,62.8,29.74,West,273,2.0,6.0,33,0.00,,---,0.00,VWS V14.01,2013-07-14 18:28:00,
2013-07-14 11:30:00,96.1,62.4,29.74,West,274,4.0,10.0,33,0.00,,---,0.00,VWS V14.01,2013-07-14 18:30:00,
2013-07-14 11:33:00,96.0,62.3,29.74,WSW,257,2.0,4.0,33,0.00,,---,0.00,VWS V14.01,2013-07-14 18:33:00,
2013-07-14 11:38:00,96.1,62.4,29.74,ESE,105,4.0,6.0,33,0.00,,---,0.00,VWS V14.01,2013-07-14 18:38:00,
2013-07-14 11:44:00,96.5,62.7,29.73,South,190,1.0,7.0,33,0.00,,---,0.00,VWS V14.01,2013-07-14 18:44:00,
2013-07-14 11:49:00,97.5,62.7,29.73,West,263,5.0,10.0,32,0.00,,---,0.00,VWS V14.01,2013-07-14 18:49:00,
2013-07-14 11:54:00,96.5,61.8,29.73,SE,143,3.0,10.0,32,0.00,,---,0.00,VWS V14.01,2013-07-14 18:54:00,
2013-07-14 11:59:00,97.3,61.6,29.73,WNW,294,3.0,10.0,31,0.00,,---,0.00,VWS V14.01,2013-07-14 18:59:00,
2013-07-14 12:00:00,98.2,62.4,29.73,NE,56,4.0,10.0,31,0.00,,---,0.00,VWS V14.01,2013-07-14 19:00:00,
2013-07-14 12:04:00,98.5,62.7,29.73,WNW,301,0.0,3.0,31,0.00,,---,0.00,VWS V14.01,2013-07-14 19:04:00,
2013-07-14 12:09:00,98.2,62.4,29.72,SW,236,2.0,8.0,31,0.00,,---,0.00,VWS V14.01,2013-07-14 19:09:00,
2013-07-14 12:14:00,97.7,62.9,29.72,WSW,240,1.0,8.0,32,0.00,,---,0.00,VWS V14.01,2013-07-14 19:14:00,
2013-07-14 12:19:00,97.8,61.1,29.72,West,274,4.0,10.0,30,0.00,,---,0.00,VWS V14.01,2013-07-14 19:19:00,
2013-07-14 12:24:00,97.3,62.5,29.72,NW,314,3.0,12.0,32,0.00,,---,0.00,VWS V14.01,2013-07-14 19:24:00,
2013-07-14 12:29:00,97.0,62.3,29.72,West,261,6.0,12.0,32,0.00,,---,0.00,VWS V14.01,2013-07-14 19:29:00,
2013-07-14 12:30:00,96.8,62.1,29.71,West,266,2.0,12.0,32,0.00,,---,0.00,VWS V14.01,2013-07-14 19:30:00,
2013-07-14 12:34:00,96.9,62.2,29.71,SSW,200,0.0,4.0,32,0.00,,---,0.00,VWS V14.01,2013-07-14 19:34:00,
2013-07-14 12:39:00,97.9,63.0,29.71,WSW,252,5.0,12.0,32,0.00,,---,0.00,VWS V14.01,2013-07-14 19:39:00,
2013-07-14 12:44:00,97.7,62.0,29.70,SW,227,4.0,12.0,31,0.00,,---,0.00,VWS V14.01,2013-07-14 19:44:00,
2013-07-14 12:50:00,98.5,61.7,29.70,WSW,257,3.0,12.0,30,0.00,,---,0.00,VWS V14.01,2013-07-14 19:50:00,
2013-07-14 12:55:00,98.7,61.9,29.70,West,274,8.0,12.0,30,0.00,,---,0.00,VWS V14.01,2013-07-14 19:55:00,
2013-07-14 13:00:00,98.6,61.8,29.69,West,262,6.0,12.0,30,0.00,,---,0.00,VWS V14.01,2013-07-14 20:00:00,
2013-07-14 13:05:00,97.9,61.2,29.69,WSW,242,11.0,12.0,30,0.00,,---,0.00,VWS V14.01,2013-07-14 20:05:00,
2013-07-14 13:11:00,96.9,62.2,29.69,WSW,239,2.0,2.0,32,0.00,,---,0.00,VWS V14.01,2013-07-14 20:11:00,
2013-07-14 13:16:00,96.6,61.0,29.70,NNW,340,3.0,8.0,31,0.00,,---,0.00,VWS V14.01,2013-07-14 20:16:00,
2013-07-14 13:21:00,96.6,61.0,29.69,NE,51,3.0,8.0,31,0.00,,---,0.00,VWS V14.01,2013-07-14 20:21:00,
2013-07-14 13:26:00,95.7,61.2,29.69,NE,34,8.0,12.0,32,0.00,,---,0.00,VWS V14.01,2013-07-14 20:26:00,
2013-07-14 13:30:00,94.6,61.1,29.69,ENE,61,2.0,12.0,33,0.00,,---,0.00,VWS V14.01,2013-07-14 20:30:00,
2013-07-14 13:31:00,94.8,61.2,29.69,NE,53,4.0,12.0,33,0.00,,---,0.00,VWS V14.01,2013-07-14 20:31:00,
2013-07-14 13:36:00,94.2,61.6,29.69,NNE,30,5.0,7.0,34,0.00,,---,0.00,VWS V14.01,2013-07-14 20:36:00,
2013-07-14 13:41:00,94.3,61.7,29.69,NNE,25,8.0,10.0,34,0.00,,---,0.00,VWS V14.01,2013-07-14 20:41:00,
2013-07-14 13:47:00,94.4,61.7,29.69,NNE,20,7.0,10.0,34,0.00,,---,0.00,VWS V14.01,2013-07-14 20:47:00,
2013-07-14 13:52:00,95.1,60.6,29.69,NE,56,4.0,10.0,32,0.00,,---,0.00,VWS V14.01,2013-07-14 20:52:00,
2013-07-14 13:57:00,95.2,59.8,29.69,NE,44,6.0,10.0,31,0.00,,---,0.00,VWS V14.01,2013-07-14 20:57:00,
2013-07-14 14:00:00,95.6,60.2,29.69,NE,56,4.0,13.0,31,0.00,,---,0.00,VWS V14.01,2013-07-14 21:00:00,
2013-07-14 14:02:00,95.5,60.1,29.68,ENE,60,6.0,13.0,31,0.00,,---,0.00,VWS V14.01,2013-07-14 21:02:00,
2013-07-14 14:07:00,95.7,61.2,29.68,NE,53,9.0,11.0,32,0.00,,---,0.00,VWS V14.01,2013-07-14 21:07:00,
2013-07-14 14:12:00,96.2,61.6,29.68,East,79,3.0,12.0,32,0.00,,---,0.00,VWS V14.01,2013-07-14 21:12:00,
2013-07-14 14:17:00,96.8,62.1,29.68,ENE,74,4.0,12.0,32,0.00,,---,0.00,VWS V14.01,2013-07-14 21:17:00,
2013-07-14 14:22:00,97.1,62.4,29.67,NE,56,3.0,12.0,32,0.00,,---,0.00,VWS V14.01,2013-07-14 21:22:00,
2013-07-14 14:27:00,97.9,62.2,29.67,NE,39,4.0,12.0,31,0.00,,---,0.00,VWS V14.01,2013-07-14 21:27:00,
2013-07-14 14:30:00,97.4,61.7,29.67,NE,41,2.0,12.0,31,0.00,,---,0.00,VWS V14.01,2013-07-14 21:30:00,
2013-07-14 14:32:00,97.4,61.7,29.67,NE,36,1.0,12.0,31,0.00,,---,0.00,VWS V14.01,2013-07-14 21:32:00,
2013-07-14 14:38:00,97.6,61.0,29.66,NE,49,4.0,12.0,30,0.00,,---,0.00,VWS V14.01,2013-07-14 21:38:00,
2013-07-14 14:43:00,98.0,61.3,29.66,West,278,0.0,12.0,30,0.00,,---,0.00,VWS V14.01,2013-07-14 21:43:00,
2013-07-14 14:48:00,98.8,62.0,29.66,North,350,1.0,12.0,30,0.00,,---,0.00,VWS V14.01,2013-07-14 21:48:00,
2013-07-14 14:53:00,99.3,61.5,29.65,NNE,28,4.0,12.0,29,0.00,,---,0.00,VWS V14.01,2013-07-14 21:53:00,
2013-07-14 14:58:00,98.6,60.9,29.65,NW,320,1.0,12.0,29,0.00,,---,0.00,VWS V14.01,2013-07-14 21:58:00,
2013-07-14 15:00:00,98.4,60.7,29.65,NE,55,3.0,12.0,29,0.00,,---,0.00,VWS V14.01,2013-07-14 22:00:00,
2013-07-14 15:03:00,98.4,60.7,29.65,ENE,74,2.0,3.0,29,0.00,,---,0.00,VWS V14.01,2013-07-14 22:03:00,
2013-07-14 15:08:00,98.2,60.5,29.65,North,8,2.0,6.0,29,0.00,,---,0.00,VWS V14.01,2013-07-14 22:08:00,
2013-07-14 15:13:00,98.9,61.1,29.64,NE,43,1.0,6.0,29,0.00,,---,0.00,VWS V14.01,2013-07-14 22:13:00,
2013-07-14 15:18:00,98.8,62.0,29.64,ESE,103,2.0,6.0,30,0.00,,---,0.00,VWS V14.01,2013-07-14 22:18:00,
2013-07-14 15:23:00,99.2,61.4,29.64,ENE,66,3.0,6.0,29,0.00,,---,0.00,VWS V14.01,2013-07-14 22:23:00,
2013-07-14 15:28:00,98.3,60.6,29.64,WNW,287,1.0,7.0,29,0.00,,---,0.00,VWS V14.01,2013-07-14 22:28:00,
2013-07-14 15:30:00,98.5,60.8,29.64,WSW,243,0.0,7.0,29,0.00,,---,0.00,VWS V14.01,2013-07-14 22:30:00,
2013-07-14 15:34:00,98.6,60.9,29.64,WSW,246,1.0,1.0,29,0.00,,---,0.00,VWS V14.01,2013-07-14 22:34:00,
2013-07-14 15:39:00,98.9,61.1,29.64,East,84,1.0,1.0,29,0.00,,---,0.00,VWS V14.01,2013-07-14 22:39:00,
2013-07-14 15:44:00,98.3,60.6,29.64,SE,134,0.0,1.0,29,0.00,,---,0.00,VWS V14.01,2013-07-14 22:44:00,
2013-07-14 15:49:00,97.8,60.2,29.64,NE,55,2.0,2.0,29,0.00,,---,0.00,VWS V14.01,2013-07-14 22:49:00,
2013-07-14 15:54:00,97.1,60.5,29.64,SSW,205,0.0,2.0,30,0.00,,---,0.00,VWS V14.01,2013-07-14 22:54:00,
2013-07-14 15:59:00,97.1,60.5,29.64,West,259,1.0,5.0,30,0.00,,---,0.00,VWS V14.01,2013-07-14 22:59:00,
2013-07-14 16:00:00,97.7,60.1,29.64,WSW,248,1.0,5.0,29,0.00,,---,0.00,VWS V14.01,2013-07-14 23:00:00,
2013-07-14 16:04:00,97.8,60.2,29.64,SW,225,2.0,3.0,29,0.00,,---,0.00,VWS V14.01,2013-07-14 23:04:00,
2013-07-14 16:09:00,98.5,59.8,29.63,West,281,3.0,4.0,28,0.00,,---,0.00,VWS V14.01,2013-07-14 23:09:00,
2013-07-14 16:14:00,98.8,60.0,29.63,WSW,253,7.0,11.0,28,0.00,,---,0.00,VWS V14.01,2013-07-14 23:14:00,
2013-07-14 16:19:00,98.9,60.1,29.63,WNW,294,4.0,12.0,28,0.00,,---,0.00,VWS V14.01,2013-07-14 23:19:00,
2013-07-14 16:24:00,98.7,59.0,29.63,SW,236,7.0,14.0,27,0.00,,---,0.00,VWS V14.01,2013-07-14 23:24:00,
2013-07-14 16:30:00,98.4,59.7,29.62,WSW,252,7.0,15.0,28,0.00,,---,0.00,VWS V14.01,2013-07-14 23:30:00,
2013-07-14 16:35:00,98.7,59.0,29.63,WSW,253,5.0,11.0,27,0.00,,---,0.00,VWS V14.01,2013-07-14 23:35:00,
2013-07-14 16:40:00,98.4,59.7,29.63,WSW,248,4.0,11.0,28,0.00,,---,0.00,VWS V14.01,2013-07-14 23:40:00,
2013-07-14 16:45:00,98.5,59.8,29.62,SW,225,4.0,11.0,28,0.00,,---,0.00,VWS V14.01,2013-07-14 23:45:00,
2013-07-14 16:50:00,98.7,59.0,29.62,West,269,6.0,11.0,27,0.00,,---,0.00,VWS V14.01,2013-07-14 23:50:00,
2013-07-14 16:55:00,98.6,58.9,29.62,WSW,245,7.0,13.0,27,0.00,,---,0.00,VWS V14.01,2013-07-14 23:55:00,
2013-07-14 17:00:00,98.4,58.7,29.62,West,271,3.0,14.0,27,0.00,,---,0.00,VWS V14.01,2013-07-15 00:00:00,
2013-07-14 17:05:00,98.5,58.8,29.62,WSW,250,3.0,8.0,27,0.00,,---,0.00,VWS V14.01,2013-07-15 00:05:00,
2013-07-14 17:10:00,98.7,59.0,29.61,West,273,9.0,11.0,27,0.00,,---,0.00,VWS V14.01,2013-07-15 00:10:00,
2013-07-14 17:15:00,98.8,59.0,29.62,West,264,9.0,14.0,27,0.00,,---,0.00,VWS V14.01,2013-07-15 00:15:00,
2013-07-14 17:20:00,98.7,59.0,29.62,WSW,255,5.0,14.0,27,0.00,,---,0.00,VWS V14.01,2013-07-15 00:20:00,
2013-07-14 17:25:00,98.6,58.9,29.61,SW,226,5.0,14.0,27,0.00,,---,0.00,VWS V14.01,2013-07-15 00:25:00,
2013-07-14 17:30:00,98.2,58.5,29.61,SW,231,6.0,15.0,27,0.00,,---,0.00,VWS V14.01,2013-07-15 00:30:00,
2013-07-14 17:31:00,98.3,58.6,29.62,West,265,5.0,15.0,27,0.00,,---,0.00,VWS V14.01,2013-07-15 00:31:00,
2013-07-14 17:36:00,98.3,58.6,29.61,WNW,290,3.0,6.0,27,0.00,,---,0.00,VWS V14.01,2013-07-15 00:36:00,
2013-07-14 17:41:00,98.9,59.1,29.61,SW,230,3.0,7.0,27,0.00,,---,0.00,VWS V14.01,2013-07-15 00:41:00,
2013-07-14 17:46:00,98.7,59.0,29.62,West,275,5.0,12.0,27,0.00,,---,0.00,VWS V14.01,2013-07-15 00:46:00,
2013-07-14 17:51:00,98.5,58.8,29.62,West,270,3.0,12.0,27,0.00,,---,0.00,VWS V14.01,2013-07-15 00:51:00,
2013-07-14 17:56:00,98.2,58.5,29.63,WNW,294,2.0,12.0,27,0.00,,---,0.00,VWS V14.01,2013-07-15 00:56:00,
2013-07-14 18:00:00,97.9,58.3,29.63,West,278,3.0,12.0,27,0.00,,---,0.00,VWS V14.01,2013-07-15 01:00:00,
2013-07-14 18:01:00,98.2,58.5,29.63,West,260,3.0,12.0,27,0.00,,---,0.00,VWS V14.01,2013-07-15 01:01:00,
2013-07-14 18:06:00,98.0,58.3,29.63,WSW,239,3.0,5.0,27,0.00,,---,0.00,VWS V14.01,2013-07-15 01:06:00,
2013-07-14 18:11:00,98.2,58.5,29.63,WSW,249,4.0,9.0,27,0.00,,---,0.00,VWS V14.01,2013-07-15 01:11:00,
2013-07-14 18:16:00,97.7,59.1,29.63,West,269,9.0,12.0,28,0.00,,---,0.00,VWS V14.01,2013-07-15 01:16:00,
2013-07-14 18:21:00,97.1,59.6,29.63,SSW,212,7.0,13.0,29,0.00,,---,0.00,VWS V14.01,2013-07-15 01:21:00,
2013-07-14 18:27:00,96.7,59.2,29.64,WSW,255,7.0,13.0,29,0.00,,---,0.00,VWS V14.01,2013-07-15 01:27:00,
2013-07-14 18:30:00,96.2,58.8,29.64,WNW,296,4.0,13.0,29,0.00,,---,0.00,VWS V14.01,2013-07-15 01:30:00,
2013-07-14 18:32:00,96.3,59.8,29.64,WSW,248,7.0,13.0,30,0.00,,---,0.00,VWS V14.01,2013-07-15 01:32:00,
2013-07-14 18:37:00,95.6,59.2,29.64,SSW,212,6.0,9.0,30,0.00,,---,0.00,VWS V14.01,2013-07-15 01:37:00,
2013-07-14 18:42:00,95.3,59.0,29.64,WSW,257,8.0,10.0,30,0.00,,---,0.00,VWS V14.01,2013-07-15 01:42:00,
2013-07-14 18:47:00,95.1,58.8,29.64,West,278,6.0,11.0,30,0.00,,---,0.00,VWS V14.01,2013-07-15 01:47:00,
2013-07-14 18:52:00,94.7,59.4,29.64,West,262,4.0,11.0,31,0.00,,---,0.00,VWS V14.01,2013-07-15 01:52:00,
2013-07-14 18:57:00,94.6,59.3,29.64,SW,232,3.0,11.0,31,0.00,,---,0.00,VWS V14.01,2013-07-15 01:57:00,
2013-07-14 19:00:00,94.2,59.0,29.64,WNW,287,7.0,12.0,31,0.00,,---,0.00,VWS V14.01,2013-07-15 02:00:00,
2013-07-14 19:02:00,94.3,59.0,29.64,West,266,3.0,12.0,31,0.00,,---,0.00,VWS V14.01,2013-07-15 02:02:00,
2013-07-14 19:07:00,94.1,58.9,29.64,WSW,246,3.0,10.0,31,0.00,,---,0.00,VWS V14.01,2013-07-15 02:07:00,
2013-07-14 19:12:00,93.9,58.7,29.64,WSW,243,3.0,12.0,31,0.00,,---,0.00,VWS V14.01,2013-07-15 02:12:00,
2013-07-14 19:17:00,93.7,58.5,29.64,WSW,243,4.0,12.0,31,0.00,,---,0.00,VWS V14.01,2013-07-15 02:17:00,
2013-07-14 19:23:00,93.5,59.2,29.64,West,275,4.0,12.0,32,0.00,,---,0.00,VWS V14.01,2013-07-15 02:23:00,
2013-07-14 19:28:00,93.2,59.0,29.64,WSW,238,5.0,12.0,32,0.00,,---,0.00,VWS V14.01,2013-07-15 02:28:00,
2013-07-14 19:30:00,93.0,58.8,29.64,WNW,284,6.0,12.0,32,0.00,,---,0.00,VWS V14.01,2013-07-15 02:30:00,
2013-07-14 19:33:00,93.0,58.8,29.64,WNW,284,6.0,12.0,32,0.00,,---,0.00,VWS V14.01,2013-07-15 02:33:00,
2013-07-14 19:38:00,92.7,58.5,29.64,West,262,6.0,9.0,32,0.00,,---,0.00,VWS V14.01,2013-07-15 02:38:00,
2013-07-14 19:43:00,92.6,59.3,29.64,WSW,249,4.0,9.0,33,0.00,,---,0.00,VWS V14.01,2013-07-15 02:43:00,
2013-07-14 19:48:00,92.4,59.2,29.64,West,275,4.0,9.0,33,0.00,,---,0.00,VWS V14.01,2013-07-15 02:48:00,
2013-07-14 19:53:00,92.2,59.0,29.64,West,269,2.0,9.0,33,0.00,,---,0.00,VWS V14.01,2013-07-15 02:53:00,
2013-07-14 19:58:00,91.9,59.5,29.64,SW,235,3.0,9.0,34,0.00,,---,0.00,VWS V14.01,2013-07-15 02:58:00,
2013-07-14 20:00:00,91.8,59.5,29.64,WSW,253,2.0,9.0,34,0.00,,---,0.00,VWS V14.01,2013-07-15 03:00:00,
2013-07-14 20:03:00,91.7,59.4,29.64,West,272,4.0,4.0,34,0.00,,---,0.00,VWS V14.01,2013-07-15 03:03:00,
2013-07-14 20:08:00,91.5,59.2,29.65,WSW,239,1.0,5.0,34,0.00,,---,0.00,VWS V14.01,2013-07-15 03:08:00,
2013-07-14 20:13:00,91.3,59.8,29.65,WSW,246,1.0,5.0,35,0.00,,---,0.00,VWS V14.01,2013-07-15 03:13:00,
2013-07-14 20:18:00,91.0,59.6,29.65,WSW,252,1.0,5.0,35,0.00,,---,0.00,VWS V14.01,2013-07-15 03:18:00,
2013-07-14 20:24:00,90.9,59.5,29.65,WSW,250,0.0,5.0,35,0.00,,---,0.00,VWS V14.01,2013-07-15 03:24:00,
2013-07-14 20:29:00,90.8,59.4,29.65,WSW,242,0.0,5.0,35,0.00,,---,0.00,VWS V14.01,2013-07-15 03:29:00,
2013-07-14 20:30:00,90.7,59.3,29.65,WSW,252,2.0,5.0,35,0.00,,---,0.00,VWS V14.01,2013-07-15 03:30:00,
2013-07-14 20:34:00,90.7,60.1,29.66,West,260,1.0,2.0,36,0.00,,---,0.00,VWS V14.01,2013-07-15 03:34:00,
2013-07-14 20:39:00,90.5,59.9,29.66,WSW,250,1.0,2.0,36,0.00,,---,0.00,VWS V14.01,2013-07-15 03:39:00,
2013-07-14 20:44:00,90.4,59.8,29.66,West,266,1.0,2.0,36,0.00,,---,0.00,VWS V14.01,2013-07-15 03:44:00,
2013-07-14 20:49:00,90.5,59.9,29.66,West,275,0.0,2.0,36,0.00,,---,0.00,VWS V14.01,2013-07-15 03:49:00,
2013-07-14 20:54:00,90.5,59.9,29.66,West,264,0.0,2.0,36,0.00,,---,0.00,VWS V14.01,2013-07-15 03:54:00,
2013-07-14 20:59:00,90.2,59.7,29.67,West,264,0.0,2.0,36,0.00,,---,0.00,VWS V14.01,2013-07-15 03:59:00,
2013-07-14 21:00:00,90.0,59.5,29.67,WSW,256,0.0,2.0,36,0.00,,---,0.00,VWS V14.01,2013-07-15 04:00:00,
2013-07-14 21:01:00,90.1,59.6,29.67,West,264,0.0,2.0,36,0.00,,---,0.00,VWS V14.01,2013-07-15 04:01:00,
2013-07-14 21:02:00,90.1,59.6,29.67,West,264,0.0,2.0,36,0.00,,---,0.00,VWS V14.01,2013-07-15 04:02:00,
2013-07-14 21:03:00,90.0,59.5,29.67,WSW,243,0.0,0.0,36,0.00,,---,0.00,VWS V14.01,2013-07-15 04:03:00,
2013-07-14 21:08:00,89.9,60.2,29.67,WSW,249,0.0,5.0,37,0.00,,---,0.00,VWS V14.01,2013-07-15 04:08:00,
2013-07-14 21:13:00,89.5,59.8,29.67,SW,228,2.0,5.0,37,0.00,,---,0.00,VWS V14.01,2013-07-15 04:13:00,
2013-07-14 21:18:00,89.4,59.7,29.68,WSW,248,1.0,5.0,37,0.00,,---,0.00,VWS V14.01,2013-07-15 04:18:00,
2013-07-14 21:23:00,89.1,60.2,29.68,WSW,240,0.0,5.0,38,0.00,,---,0.00,VWS V14.01,2013-07-15 04:23:00,
2013-07-14 21:28:00,88.7,61.3,29.68,South,191,3.0,5.0,40,0.00,,---,0.00,VWS V14.01,2013-07-15 04:28:00,
2013-07-14 21:30:00,88.4,61.0,29.68,WSW,250,2.0,7.0,40,0.00,,---,0.00,VWS V14.01,2013-07-15 04:30:00,
2013-07-14 21:33:00,88.4,61.0,29.68,WSW,240,2.0,3.0,40,0.00,,---,0.00,VWS V14.01,2013-07-15 04:33:00,
2013-07-14 21:38:00,88.1,61.5,29.68,West,268,2.0,6.0,41,0.00,,---,0.00,VWS V14.01,2013-07-15 04:38:00,
2013-07-14 21:43:00,87.8,61.2,29.68,West,274,1.0,6.0,41,0.00,,---,0.00,VWS V14.01,2013-07-15 04:43:00,
2013-07-14 21:49:00,87.7,61.1,29.68,West,274,1.0,6.0,41,0.00,,---,0.00,VWS V14.01,2013-07-15 04:49:00,
2013-07-14 21:54:00,87.5,60.9,29.69,WSW,239,0.0,6.0,41,0.00,,---,0.00,VWS V14.01,2013-07-15 04:54:00,
2013-07-14 21:59:00,87.2,61.3,29.69,WSW,239,0.0,6.0,42,0.00,,---,0.00,VWS V14.01,2013-07-15 04:59:00,
2013-07-14 22:00:00,86.9,61.1,29.69,WSW,239,0.0,6.0,42,0.00,,---,0.00,VWS V14.01,2013-07-15 05:00:00,
2013-07-14 22:04:00,86.9,61.1,29.69,WSW,239,0.0,0.0,42,0.00,,---,0.00,VWS V14.01,2013-07-15 05:04:00,
2013-07-14 22:09:00,86.6,61.5,29.69,WSW,239,0.0,0.0,43,0.00,,---,0.00,VWS V14.01,2013-07-15 05:09:00,
2013-07-14 22:14:00,86.4,61.3,29.69,WSW,239,0.0,0.0,43,0.00,,---,0.00,VWS V14.01,2013-07-15 05:14:00,
2013-07-14 22:19:00,86.4,61.3,29.69,WSW,239,0.0,0.0,43,0.00,,---,0.00,VWS V14.01,2013-07-15 05:19:00,
2013-07-14 22:24:00,86.6,61.5,29.69,WSW,258,1.0,3.0,43,0.00,,---,0.00,VWS V14.01,2013-07-15 05:24:00,
2013-07-14 22:29:00,86.4,61.9,29.69,WSW,243,1.0,3.0,44,0.00,,---,0.00,VWS V14.01,2013-07-15 05:29:00,
2013-07-14 22:30:00,86.1,61.7,29.69,WSW,257,0.0,3.0,44,0.00,,---,0.00,VWS V14.01,2013-07-15 05:30:00,
2013-07-14 22:34:00,86.1,61.7,29.68,WSW,257,0.0,1.0,44,0.00,,---,0.00,VWS V14.01,2013-07-15 05:34:00,
2013-07-14 22:40:00,85.9,61.5,29.68,SW,232,2.0,2.0,44,0.00,,---,0.00,VWS V14.01,2013-07-15 05:40:00,
2013-07-14 22:45:00,85.8,62.0,29.68,SW,234,0.0,2.0,45,0.00,,---,0.00,VWS V14.01,2013-07-15 05:45:00,
2013-07-14 22:50:00,85.6,61.8,29.68,SW,228,0.0,2.0,45,0.00,,---,0.00,VWS V14.01,2013-07-15 05:50:00,
2013-07-14 22:55:00,85.3,62.2,29.68,SW,228,0.0,2.0,46,0.00,,---,0.00,VWS V14.01,2013-07-15 05:55:00,
2013-07-14 23:00:00,85.1,62.0,29.68,WSW,242,0.0,2.0,46,0.00,,---,0.00,VWS V14.01,2013-07-15 06:00:00,
2013-07-14 23:05:00,85.1,62.0,29.69,WSW,246,0.0,3.0,46,0.00,,---,0.00,VWS V14.01,2013-07-15 06:05:00,
2013-07-14 23:10:00,85.2,62.1,29.69,WSW,256,0.0,3.0,46,0.00,,---,0.00,VWS V14.01,2013-07-15 06:10:00,
2013-07-14 23:15:00,84.9,61.8,29.69,WSW,251,0.0,3.0,46,0.00,,---,0.00,VWS V14.01,2013-07-15 06:15:00,
2013-07-14 23:20:00,84.9,61.8,29.69,WSW,246,0.0,3.0,46,0.00,,---,0.00,VWS V14.01,2013-07-15 06:20:00,
2013-07-14 23:25:00,84.9,61.8,29.69,WSW,238,0.0,3.0,46,0.00,,---,0.00,VWS V14.01,2013-07-15 06:25:00,
2013-07-14 23:30:00,84.5,62.1,29.69,WSW,238,0.0,3.0,47,0.00,,---,0.00,VWS V14.01,2013-07-15 06:30:00,
2013-07-14 23:31:00,84.7,61.7,29.69,WSW,238,0.0,3.0,46,0.00,,---,0.00,VWS V14.01,2013-07-15 06:31:00,
2013-07-14 23:36:00,84.3,61.9,29.69,WSW,238,0.0,0.0,47,0.00,,---,0.00,VWS V14.01,2013-07-15 06:36:00,
2013-07-14 23:41:00,84.0,62.8,29.69,WSW,238,0.0,0.0,49,0.00,,---,0.00,VWS V14.01,2013-07-15 06:41:00,
2013-07-14 23:46:00,83.7,62.5,29.69,WSW,238,0.0,0.0,49,0.00,,---,0.00,VWS V14.01,2013-07-15 06:46:00,
2013-07-14 23:51:00,83.3,62.7,29.69,WSW,238,0.0,0.0,50,0.00,,---,0.00,VWS V14.01,2013-07-15 06:51:00,
2013-07-14 23:56:00,83.0,62.5,29.68,WSW,238,0.0,0.0,50,0.00,,---,0.00,VWS V14.01,2013-07-15 06:56:00,